Location: Berlin
(38.3226°N, 75.2177°W)
Time: 11:37:40
(UTC+00:00)

COSMOS 2406 - Pass Details

Date: 26 October 2020
Orbit: 843 x 864 km, 71.0° (Epoch: 29 November)

Event Time Altitude Azimuth Distance (km) Brightness Sun altitude
Exits shadow 09:48:03 32° 252° (WSW) 1,416 3.8 -18.9°
Maximum altitude 09:50:01 43° 298° (WNW) 1,170 3.5 -18.5°
Drops below altitude 10° 09:55:24 10° 9° (N) 2,469 5.7 -17.4°
Sets 09:57:59 0° 17° (NNE) 3,409 6.5 -16.9°
